| time (UTC) | temp C | wind direction | speed KPH | gust KPH | rain 1hr cm | rain 24hr cm | rain mn cm | humidity % | barometer mb |
| 20260503045705 | 13 | 178 | 0.0 | 3.2 | 0.00 | 0.03 | 0.00 | 83 | 1006.7 |
| 20260503045206 | 13 | 178 | 0.0 | 3.2 | 0.00 | 0.03 | 0.00 | 83 | 1006.7 |
| 20260503044204 | 13 | 178 | 1.6 | 3.2 | 0.00 | 0.03 | 0.00 | 83 | 1006.8 |
| 20260503043704 | 13 | 178 | 0.0 | 3.2 | 0.00 | 0.03 | 0.00 | 83 | 1006.8 |
| 20260503043205 | 13 | 175 | 0.0 | 1.6 | 0.00 | 0.03 | 0.00 | 83 | 1006.8 |
| 20260503042704 | 13 | 175 | 0.0 | 3.2 | 0.00 | 0.03 | 0.00 | 83 | 1006.9 |
| 20260503042205 | 13 | 175 | 0.0 | 3.2 | 0.00 | 0.03 | 0.00 | 83 | 1006.9 |
| 20260503041705 | 13 | 175 | 0.0 | 3.2 | 0.00 | 0.03 | 0.00 | 83 | 1006.9 |
| 20260503041205 | 13 | 175 | 0.0 | 3.2 | 0.00 | 0.03 | 0.00 | 83 | 1007.0 |
| 20260503040705 | 13 | 175 | 0.0 | 3.2 | 0.00 | 0.03 | 0.00 | 83 | 1006.9 |
| 20260503040204 | 13 | 175 | 0.0 | 1.6 | 0.00 | 0.03 | 0.00 | 83 | 1006.9 |
| 20260503035704 | 13 | 175 | 0.0 | 1.6 | 0.00 | 0.03 | 0.00 | 83 | 1006.8 |
| 20260503035205 | 13 | 175 | 0.0 | 1.6 | 0.00 | 0.03 | 0.00 | 83 | 1006.9 |
| 20260503034703 | 13 | 175 | 0.0 | 4.8 | 0.00 | 0.03 | 0.00 | 83 | 1006.9 |
| 20260503034204 | 13 | 175 | 0.0 | 4.8 | 0.00 | 0.03 | 0.00 | 83 | 1007.0 |
| 20260503033704 | 13 | 175 | 0.0 | 4.8 | 0.00 | 0.03 | 0.00 | 83 | 1006.9 |
| 20260503033204 | 13 | 175 | 0.0 | 1.6 | 0.00 | 0.03 | 0.00 | 83 | 1006.8 |
| 20260503032704 | 13 | 175 | 0.0 | 1.6 | 0.00 | 0.03 | 0.00 | 83 | 1006.8 |
| 20260503032205 | 13 | 175 | 0.0 | 3.2 | 0.00 | 0.03 | 0.00 | 83 | 1006.8 |
| 20260503031747 | 13 | 175 | 0.0 | 3.2 | 0.00 | 0.03 | 0.00 | 83 | 1006.9 |
| 20260503031204 | 13 | 175 | 0.0 | 3.2 | 0.00 | 0.03 | 0.00 | 83 | 1006.9 |
| 20260503030704 | 13 | 175 | 0.0 | 3.2 | 0.00 | 0.03 | 0.00 | 83 | 1006.9 |
| 20260503030204 | 13 | 175 | 0.0 | 3.2 | 0.00 | 0.03 | 0.00 | 83 | 1006.9 |
| 20260503025704 | 13 | 175 | 0.0 | 3.2 | 0.00 | 0.03 | 0.00 | 83 | 1007.0 |
| 20260503024205 | 13 | 175 | 0.0 | 3.2 | 0.00 | 0.03 | 0.00 | 83 | 1007.0 |
| 20260503022705 | 13 | 175 | 0.0 | 3.2 | 0.00 | 0.03 | 0.00 | 83 | 1007.0 |
| 20260503021704 | 13 | 175 | 0.0 | 3.2 | 0.00 | 0.03 | 0.00 | 83 | 1007.1 |
| 20260503021204 | 13 | 175 | 1.6 | 3.2 | 0.00 | 0.03 | 0.00 | 83 | 1007.1 |
| 20260503020704 | 13 | 175 | 0.0 | 3.2 | 0.00 | 0.03 | 0.00 | 83 | 1007.2 |
| 20260503015704 | 13 | 175 | 1.6 | 6.4 | 0.00 | 0.03 | 0.00 | 83 | 1007.4 |
| 20260503015204 | 13 | 175 | 1.6 | 6.4 | 0.00 | 0.03 | 0.00 | 83 | 1007.4 |
| 20260503014704 | 13 | 172 | 1.6 | 4.8 | 0.00 | 0.03 | 0.00 | 83 | 1007.3 |
| 20260503014205 | 14 | 197 | 1.6 | 4.8 | 0.00 | 0.03 | 0.00 | 83 | 1007.5 |
| 20260503013204 | 14 | 197 | 0.0 | 6.4 | 0.00 | 0.03 | 0.00 | 82 | 1007.5 |
| 20260503012708 | 14 | 196 | 1.6 | 6.4 | 0.00 | 0.03 | 0.00 | 82 | 1007.5 |
| 20260503012205 | 14 | 196 | 1.6 | 6.4 | 0.00 | 0.03 | 0.00 | 82 | 1007.5 |
| 20260503011704 | 14 | 173 | 1.6 | 4.8 | 0.00 | 0.03 | 0.00 | 82 | 1007.6 |
| 20260503010704 | 14 | 148 | 1.6 | 4.8 | 0.00 | 0.03 | 0.00 | 82 | 1007.8 |
| 20260503005704 | 14 | 172 | 1.6 | 4.8 | 0.00 | 0.03 | 0.00 | 82 | 1007.8 |
| 20260503005204 | 14 | 172 | 0.0 | 4.8 | 0.00 | 0.03 | 0.00 | 82 | 1007.8 |
| 20260503004704 | 14 | 172 | 1.6 | 4.8 | 0.00 | 0.03 | 0.00 | 82 | 1007.8 |
| 20260503004204 | 14 | 175 | 1.6 | 3.2 | 0.00 | 0.03 | 0.00 | 82 | 1007.9 |
| 20260503002705 | 14 | 171 | 0.0 | 6.4 | 0.00 | 0.03 | 0.00 | 82 | 1007.9 |
| 20260503002205 | 14 | 171 | 0.0 | 6.4 | 0.00 | 0.03 | 0.00 | 82 | 1008.0 |
| 20260503001704 | 14 | 176 | 1.6 | 3.2 | 0.00 | 0.03 | 0.00 | 82 | 1008.1 |
| 20260503001207 | 14 | 102 | 0.0 | 3.2 | 0.00 | 0.03 | 0.00 | 82 | 1008.1 |
| 20260503000705 | 14 | 102 | 0.0 | 3.2 | 0.00 | 0.03 | 0.00 | 82 | 1008.1 |
| 20260503000204 | 14 | 102 | 0.0 | 3.2 | 0.00 | 0.03 | 0.00 | 82 | 1008.1 |
| 20260502235204 | 14 | 102 | 1.6 | 3.2 | 0.00 | 0.03 | 0.00 | 82 | 1008.2 |
| 20260502234703 | 14 | 99 | 0.0 | 1.6 | 0.00 | 0.03 | 0.00 | 82 | 1008.1 |
| 20260502234219 | 14 | 99 | 0.0 | 3.2 | 0.00 | 0.03 | 0.00 | 82 | 1008.2 |
| 20260502233704 | 14 | 99 | 0.0 | 3.2 | 0.00 | 0.03 | 0.00 | 82 | 1008.2 |
| 20260502233205 | 14 | 99 | 0.0 | 1.6 | 0.00 | 0.03 | 0.00 | 82 | 1008.3 |
| 20260502232205 | 14 | 97 | 0.0 | 1.6 | 0.00 | 0.03 | 0.00 | 82 | 1008.3 |
| 20260502231705 | 14 | 97 | 0.0 | 1.6 | 0.00 | 0.03 | 0.00 | 82 | 1008.2 |
| 20260502231203 | 14 | 97 | 0.0 | 3.2 | 0.00 | 0.03 | 0.00 | 82 | 1008.2 |
| 20260502230730 | 14 | 97 | 0.0 | 3.2 | 0.00 | 0.03 | 0.00 | 82 | 1008.3 |
| 20260502230204 | 14 | 97 | 0.0 | 3.2 | 0.00 | 0.03 | 0.03 | 82 | 1008.2 |
| 20260502225705 | 14 | 97 | 0.0 | 0.0 | 0.00 | 0.03 | 0.03 | 82 | 1008.3 |
| 20260502225203 | 14 | 97 | 0.0 | 1.6 | 0.00 | 0.03 | 0.03 | 82 | 1008.2 |
| 20260502224704 | 14 | 97 | 0.0 | 4.8 | 0.00 | 0.03 | 0.03 | 82 | 1008.3 |
| 20260502224205 | 15 | 97 | 0.0 | 4.8 | 0.00 | 0.03 | 0.03 | 82 | 1008.3 |
| 20260502223704 | 15 | 97 | 0.0 | 4.8 | 0.00 | 0.03 | 0.03 | 82 | 1008.3 |
| 20260502223205 | 15 | 97 | 1.6 | 4.8 | 0.00 | 0.03 | 0.03 | 82 | 1008.4 |
| 20260502222704 | 15 | 97 | 0.0 | 4.8 | 0.00 | 0.03 | 0.03 | 82 | 1008.5 |
| 20260502222209 | 15 | 97 | 0.0 | 4.8 | 0.00 | 0.03 | 0.03 | 82 | 1008.4 |
| 20260502221705 | 15 | 97 | 1.6 | 4.8 | 0.00 | 0.03 | 0.03 | 82 | 1008.4 |
| 20260502220705 | 15 | 97 | 1.6 | 3.2 | 0.00 | 0.03 | 0.03 | 82 | 1008.5 |
| 20260502215707 | 15 | 97 | 0.0 | 3.2 | 0.00 | 0.03 | 0.03 | 82 | 1008.5 |
| 20260502215205 | 15 | 97 | 0.0 | 4.8 | 0.00 | 0.03 | 0.03 | 82 | 1008.3 |
| 20260502214704 | 15 | 97 | 0.0 | 4.8 | 0.00 | 0.03 | 0.03 | 82 | 1008.2 |
| 20260502214204 | 15 | 97 | 0.0 | 4.8 | 0.00 | 0.03 | 0.03 | 82 | 1008.3 |
| 20260502212704 | 15 | 97 | 1.6 | 4.8 | 0.00 | 0.03 | 0.03 | 82 | 1008.8 |
| 20260502212205 | 15 | 97 | 0.0 | 3.2 | 0.00 | 0.03 | 0.03 | 82 | 1008.6 |
| 20260502211704 | 15 | 97 | 0.0 | 3.2 | 0.00 | 0.03 | 0.03 | 82 | 1008.3 |
| 20260502211204 | 15 | 97 | 1.6 | 4.8 | 0.00 | 0.03 | 0.03 | 82 | 1008.6 |
| 20260502210705 | 15 | 97 | 0.0 | 4.8 | 0.00 | 0.03 | 0.03 | 82 | 1008.9 |
| 20260502210205 | 15 | 97 | 0.0 | 6.4 | 0.00 | 0.03 | 0.03 | 82 | 1008.9 |
| 20260502205738 | 15 | 97 | 1.6 | 8.0 | 0.00 | 0.03 | 0.03 | 82 | 1009.1 |
| 20260502205204 | 15 | 97 | 1.6 | 11.3 | 0.00 | 0.03 | 0.03 | 82 | 1009.1 |
| 20260502204703 | 15 | 103 | 3.2 | 11.3 | 0.00 | 0.03 | 0.03 | 81 | 1009.1 |
| 20260502204205 | 15 | 106 | 3.2 | 11.3 | 0.00 | 0.03 | 0.03 | 81 | 1009.2 |
| 20260502203704 | 15 | 92 | 3.2 | 8.0 | 0.00 | 0.03 | 0.03 | 81 | 1009.3 |
| 20260502203204 | 15 | 113 | 1.6 | 3.2 | 0.00 | 0.03 | 0.03 | 81 | 1009.4 |
| 20260502202705 | 15 | 100 | 1.6 | 8.0 | 0.00 | 0.03 | 0.03 | 81 | 1009.1 |
| 20260502201704 | 15 | 99 | 0.0 | 8.0 | 0.00 | 0.03 | 0.03 | 80 | 1008.9 |
| 20260502201209 | 15 | 103 | 1.6 | 8.0 | 0.00 | 0.03 | 0.03 | 80 | 1009.1 |
| 20260502200705 | 15 | 103 | 1.6 | 8.0 | 0.00 | 0.03 | 0.03 | 80 | 1009.3 |
| 20260502200204 | 15 | 109 | 3.2 | 8.0 | 0.00 | 0.03 | 0.03 | 80 | 1009.3 |
| 20260502195705 | 15 | 103 | 1.6 | 8.0 | 0.00 | 0.03 | 0.03 | 80 | 1009.1 |
| 20260502195206 | 15 | 94 | 3.2 | 8.0 | 0.00 | 0.03 | 0.03 | 80 | 1009.1 |
| 20260502194704 | 15 | 96 | 3.2 | 8.0 | 0.00 | 0.03 | 0.03 | 80 | 1009.2 |
| 20260502194205 | 15 | 86 | 1.6 | 6.4 | 0.00 | 0.03 | 0.03 | 80 | 1009.1 |
| 20260502193704 | 15 | 114 | 1.6 | 8.0 | 0.00 | 0.03 | 0.03 | 80 | 1009.2 |
| 20260502193205 | 15 | 116 | 1.6 | 8.0 | 0.00 | 0.03 | 0.03 | 80 | 1009.1 |
| 20260502192204 | 16 | 109 | 0.0 | 3.2 | 0.00 | 0.03 | 0.03 | 80 | 1009.1 |
| 20260502191204 | 16 | 109 | 0.0 | 6.4 | 0.00 | 0.03 | 0.03 | 79 | 1009.0 |
| 20260502190705 | 16 | 110 | 0.0 | 6.4 | 0.00 | 0.03 | 0.03 | 79 | 1009.1 |
| 20260502190205 | 16 | 110 | 0.0 | 6.4 | 0.00 | 0.03 | 0.03 | 79 | 1009.1 |
| 20260502185705 | 16 | 111 | 3.2 | 1.6 | 0.00 | 0.03 | 0.03 | 79 | 1009.3 |
| 20260502185204 | 16 | 104 | 0.0 | 1.6 | 0.00 | 0.03 | 0.03 | 79 | 1009.2 |
| 20260502184704 | 16 | 106 | 0.0 | 1.6 | 0.00 | 0.03 | 0.03 | 79 | 1009.2 |
| 20260502183704 | 16 | 106 | 0.0 | 3.2 | 0.00 | 0.03 | 0.03 | 79 | 1009.0 |
| 20260502183204 | 16 | 106 | 0.0 | 3.2 | 0.00 | 0.03 | 0.03 | 79 | 1009.1 |
| 20260502182704 | 16 | 106 | 0.0 | 4.8 | 0.03 | 0.03 | 0.03 | 78 | 1009.2 |
| 20260502182204 | 16 | 106 | 0.0 | 4.8 | 0.03 | 0.03 | 0.03 | 78 | 1009.3 |
| 20260502181706 | 16 | 104 | 0.0 | 8.0 | 0.03 | 0.03 | 0.03 | 78 | 1009.4 |
| 20260502181204 | 16 | 107 | 1.6 | 8.0 | 0.03 | 0.03 | 0.03 | 78 | 1009.6 |
| 20260502180704 | 16 | 111 | 0.0 | 8.0 | 0.03 | 0.03 | 0.03 | 79 | 1009.7 |
| 20260502180204 | 16 | 140 | 0.0 | 4.8 | 0.03 | 0.03 | 0.03 | 79 | 1009.6 |
| 20260502170204 | 18 | 212 | 1.6 | 8.0 | 0.00 | 0.00 | 0.00 | 70 | 1009.9 |
| 20260502163704 | 20 | 171 | 3.2 | 14.5 | 0.00 | 0.00 | 0.00 | 59 | 1010.1 |
| 20260502163204 | 20 | 104 | 3.2 | 14.5 | 0.00 | 0.00 | 0.00 | 56 | 1010.0 |
| 20260502162704 | 21 | 125 | 3.2 | 14.5 | 0.00 | 0.00 | 0.00 | 53 | 1010.0 |
| 20260502162204 | 21 | 93 | 3.2 | 14.5 | 0.00 | 0.00 | 0.00 | 51 | 1010.0 |
| 20260502161704 | 21 | 104 | 4.8 | 8.0 | 0.00 | 0.00 | 0.00 | 51 | 1010.0 |
| 20260502161204 | 21 | 97 | 3.2 | 8.0 | 0.00 | 0.00 | 0.00 | 51 | 1010.0 |
| 20260502160704 | 21 | 116 | 4.8 | 9.7 | 0.00 | 0.00 | 0.00 | 49 | 1010.0 |
| 20260502160205 | 21 | 83 | 4.8 | 9.7 | 0.00 | 0.00 | 0.00 | 49 | 1010.0 |
| 20260502151204 | 22 | 76 | 3.2 | 16.1 | 0.00 | 0.00 | 0.00 | 46 | 1010.6 |
| 20260502150703 | 22 | 104 | 4.8 | 16.1 | 0.00 | 0.00 | 0.00 | 46 | 1010.8 |
| 20260502130205 | 22 | 116 | 1.6 | 6.4 | 0.00 | 0.00 | 0.00 | 45 | 1012.5 |
| 20260502123205 | 22 | 124 | 3.2 | 8.0 | 0.00 | 0.00 | 0.00 | 46 | 1012.9 |
| 20260502122708 | 22 | 209 | 3.2 | 8.0 | 0.00 | 0.00 | 0.00 | 46 | 1013.0 |
| 20260502122205 | 22 | 190 | 1.6 | 8.0 | 0.00 | 0.00 | 0.00 | 46 | 1013.0 |
| 20260502121704 | 21 | 97 | 1.6 | 8.0 | 0.00 | 0.00 | 0.00 | 49 | 1013.0 |
| 20260502121205 | 21 | 111 | 1.6 | 8.0 | 0.00 | 0.00 | 0.00 | 49 | 1013.1 |
| 20260502120704 | 21 | 110 | 1.6 | 8.0 | 0.00 | 0.00 | 0.00 | 48 | 1013.2 |
| 20260502120204 | 21 | 248 | 1.6 | 8.0 | 0.00 | 0.00 | 0.00 | 48 | 1013.2 |
| 20260502115704 | 21 | 230 | 3.2 | 8.0 | 0.00 | 0.00 | 0.00 | 46 | 1013.3 |
| 20260502115204 | 21 | 93 | 1.6 | 8.0 | 0.00 | 0.00 | 0.00 | 46 | 1013.4 |
| 20260502114706 | 21 | 157 | 3.2 | 6.4 | 0.00 | 0.00 | 0.00 | 46 | 1013.6 |
| 20260502114206 | 21 | 104 | 1.6 | 6.4 | 0.00 | 0.00 | 0.00 | 48 | 1013.6 |
| 20260502113710 | 21 | 106 | 3.2 | 6.4 | 0.00 | 0.00 | 0.00 | 48 | 1013.7 |
| 20260502113204 | 20 | 252 | 1.6 | 4.8 | 0.00 | 0.00 | 0.00 | 50 | 1013.7 |
| 20260502112705 | 20 | 258 | 1.6 | 8.0 | 0.00 | 0.00 | 0.00 | 49 | 1013.7 |
| 20260502112204 | 20 | 258 | 1.6 | 8.0 | 0.00 | 0.00 | 0.00 | 47 | 1013.7 |
| 20260502111705 | 20 | 258 | 0.0 | 6.4 | 0.00 | 0.00 | 0.00 | 48 | 1013.8 |
| 20260502111204 | 20 | 254 | 1.6 | 8.0 | 0.00 | 0.00 | 0.00 | 52 | 1013.8 |
| 20260502110205 | 20 | 104 | 0.0 | 8.0 | 0.00 | 0.00 | 0.00 | 55 | 1014.3 |
| 20260502105704 | 19 | 104 | 3.2 | 4.8 | 0.00 | 0.00 | 0.00 | 54 | 1014.2 |
| 20260502105214 | 19 | 240 | 1.6 | 6.4 | 0.00 | 0.00 | 0.00 | 57 | 1014.2 |
| 20260502104705 | 19 | 269 | 0.0 | 6.4 | 0.00 | 0.00 | 0.00 | 55 | 1014.4 |
| 20260502104204 | 19 | 271 | 3.2 | 8.0 | 0.00 | 0.00 | 0.00 | 55 | 1014.3 |
| 20260502103705 | 19 | 158 | 1.6 | 8.0 | 0.00 | 0.00 | 0.00 | 56 | 1014.4 |
| 20260502103205 | 18 | 240 | 1.6 | 8.0 | 0.00 | 0.00 | 0.00 | 58 | 1014.4 |
| 20260502102704 | 18 | 255 | 3.2 | 6.4 | 0.00 | 0.00 | 0.00 | 57 | 1014.5 |
| 20260502101205 | 19 | 145 | 1.6 | 4.8 | 0.00 | 0.00 | 0.00 | 58 | 1014.6 |
| 20260502100705 | 19 | 154 | 1.6 | 6.4 | 0.00 | 0.00 | 0.00 | 57 | 1014.7 |
| 20260502100205 | 19 | 141 | 0.0 | 6.4 | 0.00 | 0.00 | 0.00 | 60 | 1014.7 |
| 20260502090704 | 16 | 233 | 0.0 | 8.0 | 0.00 | 0.00 | 0.00 | 70 | 1015.1 |
| 20260502070704 | 11 | 219 | 1.6 | 6.4 | 0.00 | 0.00 | 0.00 | 82 | 1015.8 |
| 20260502070205 | 11 | 214 | 3.2 | 6.4 | 0.00 | 0.00 | 0.00 | 82 | 1015.7 |
| 20260502065705 | 11 | 214 | 0.0 | 6.4 | 0.00 | 0.00 | 0.00 | 82 | 1015.7 |
| 20260502065205 | 11 | 212 | 3.2 | 6.4 | 0.00 | 0.00 | 0.00 | 81 | 1015.7 |
| 20260502064704 | 11 | 224 | 3.2 | 9.7 | 0.00 | 0.00 | 0.00 | 81 | 1015.7 |
| 20260502063704 | 11 | 214 | 1.6 | 9.7 | 0.00 | 0.00 | 0.00 | 80 | 1015.6 |
| 20260502063235 | 11 | 240 | 4.8 | 6.4 | 0.00 | 0.00 | 0.00 | 80 | 1015.6 |
| 20260502062705 | 11 | 217 | 1.6 | 6.4 | 0.00 | 0.00 | 0.00 | 79 | 1015.6 |
| 20260502061706 | 11 | 171 | 1.6 | 4.8 | 0.00 | 0.00 | 0.00 | 79 | 1015.5 |
| 20260502061205 | 11 | 179 | 0.0 | 6.4 | 0.00 | 0.00 | 0.00 | 79 | 1015.6 |
| 20260502060704 | 11 | 179 | 1.6 | 6.4 | 0.00 | 0.00 | 0.00 | 79 | 1015.7 |
| 20260502060204 | 11 | 179 | 1.6 | 6.4 | 0.00 | 0.00 | 0.00 | 78 | 1015.6 |
| 20260502055704 | 11 | 179 | 1.6 | 3.2 | 0.00 | 0.00 | 0.00 | 78 | 1015.6 |
| 20260502055204 | 11 | 178 | 0.0 | 3.2 | 0.00 | 0.00 | 0.00 | 78 | 1015.6 |
| 20260502054705 | 10 | 178 | 0.0 | 3.2 | 0.00 | 0.00 | 0.00 | 78 | 1015.5 |
| 20260502053705 | 10 | 178 | 0.0 | 4.8 | 0.00 | 0.00 | 0.00 | 78 | 1015.6 |
| 20260502052705 | 10 | 178 | 0.0 | 4.8 | 0.00 | 0.00 | 0.00 | 78 | 1015.7 |
| 20260502052205 | 10 | 178 | 1.6 | 3.2 | 0.00 | 0.00 | 0.00 | 79 | 1015.7 |
| 20260502050706 | 10 | 178 | 0.0 | 3.2 | 0.00 | 0.00 | 0.00 | 79 | 1015.6 |
| 20260502050204 | 10 | 178 | 0.0 | 3.2 | 0.00 | 0.00 | 0.00 | 79 | 1015.7 |